• Join FlightAware (Why Join?)
  • Login
  • US Flag 
02:13PM EST


 

Airport Tracker/Info


-or-


 

Live Flight TrackerFlight Track Log ✈ N690L ✈ 03-Jul-2013 ✈ KTXK - KLFT

Flight Track Log - Related Links

Times and Time Zones

All times are in EDT time to prevent confusion due to time zone crossing. See the N690L flight status page for this flight to view local times or setup timezone preferences in your user account.

Time Position Orientation Groundspeed Altitude Reporting Facility
EDT Latitude Longitude Course Direction KTS MPH feet Rate Location/Type
05:48PM 33.4600 -93.9575 152° Southeast 277 319 1,900  Level Fort Worth Center
05:49PM 33.4239 -93.9342 152° Southeast 166 191 3,700 1,900 Climbing Fort Worth Center
05:50PM 33.3814 -93.9058 151° Southeast 153 176 5,700 2,000 Climbing Fort Worth Center
05:51PM 33.3325 -93.8756 153° Southeast 159 183 7,700 1,950 Climbing Fort Worth Center
05:52PM 33.2900 -93.8450 149° Southeast 170 196 9,600 1,950 Climbing Fort Worth Center
05:53PM 33.2456 -93.8194 154° Southeast 175 201 11,600 1,800 Climbing Fort Worth Center
05:54PM 33.2008 -93.7889 150° Southeast 180 207 13,200 1,650 Climbing Fort Worth Center
05:55PM 33.1561 -93.7611 153° Southeast 180 207 14,900 1,650 Climbing Fort Worth Center
05:56PM 33.1114 -93.7331 152° Southeast 180 207 16,500 1,450 Climbing Fort Worth Center
05:57PM 33.0647 -93.7053 153° Southeast 180 207 17,800 1,450 Climbing Fort Worth Center
05:58PM 33.0178 -93.6750 152° Southeast 185 213 19,400 1,550 Climbing Fort Worth Center
05:59PM 32.9711 -93.6447 151° Southeast 185 213 20,900 800 Climbing Fort Worth Center
06:00PM 32.9181 -93.6147 155° Southeast 185 213 21,000 50 Climbing Fort Worth Center
06:01PM 32.8564 -93.5753 152° Southeast 218 251 21,000  Level Fort Worth Center
06:02PM 32.7944 -93.5361 152° Southeast 236 272 21,000  Level Fort Worth Center
06:03PM 32.7286 -93.4944 152° Southeast 257 296 21,000  Level Fort Worth Center
06:04PM 32.6625 -93.4553 153° Southeast 262 302 21,000  Level Fort Worth Center
06:05PM 32.6008 -93.4136 150° Southeast 262 302 21,000  Level Fort Worth Center
06:06PM 32.5328 -93.3750 154° Southeast 262 302 21,000  Level Fort Worth Center
06:09PM 32.3847 -93.2881 154° Southeast 262 302 21,000  Level Houston Center
06:10PM 32.3206 -93.2467 151° Southeast 261 300 21,000  Level Houston Center
06:11PM 32.2550 -93.2075 153° Southeast 262 302 21,000  Level Houston Center
06:12PM 32.1772 -93.1589 152° Southeast 264 304 21,000  Level Houston Center
06:13PM 32.1119 -93.1194 153° Southeast 263 303 21,000  Level Houston Center
06:14PM 32.0481 -93.0819 154° Southeast 259 298 21,000  Level Houston Center
06:15PM 31.9842 -93.0453 154° Southeast 256 295 21,000  Level Houston Center
06:16PM 31.9200 -93.0064 153° Southeast 259 298 21,000  Level Houston Center
06:17PM 31.8556 -92.9658 152° Southeast 260 299 21,000  Level Houston Center
06:18PM 31.7786 -92.9192 153° Southeast 259 298 21,000  Level Houston Center
06:19PM 31.7136 -92.8817 154° Southeast 260 299 21,000  Level Houston Center
06:20PM 31.6489 -92.8411 152° Southeast 262 302 21,000  Level Houston Center
06:21PM 31.5842 -92.8017 153° Southeast 262 302 21,000  Level Houston Center
06:22PM 31.5217 -92.7653 154° Southeast 252 290 21,000  Level Houston Center
06:23PM 31.4469 -92.7197 153° Southeast 252 290 21,000 -290 Level Houston Center
06:24PM 31.3844 -92.6828 153° Southeast 252 290 20,400 -816 Descending Houston Center
06:25PM 31.3186 -92.6433 153° Southeast 267 307 19,300 -1,056 Descending Houston Center
06:26PM 31.2514 -92.6033 153° Southeast 277 319 18,200 -1,210 Descending Houston Center
06:27PM 31.1689 -92.5550 153° Southeast 280 322 16,800 -1,210 Descending Houston Center
06:28PM 31.1011 -92.5142 153° Southeast 278 320 15,700 -1,113 Descending Houston Center
06:29PM 31.0333 -92.4731 153° Southeast 277 319 14,500 -1,161 Descending Houston Center
06:30PM 30.9650 -92.4333 154° Southeast 275 316 13,300 -1,161 Descending Houston Center
06:31PM 30.8978 -92.3933 153° Southeast 271 312 12,100 -1,113 Descending Houston Center
06:32PM 30.8189 -92.3472 153° Southeast 266 306 11,000 -532 Descending Houston Center
06:33PM 30.7581 -92.3103 152° Southeast 252 290 11,000 -435 Level Houston Center
06:35PM 30.6956 -92.2753 154° Southeast 249 287 10,100 -1,065 Descending Houston Center
06:36PM 30.6331 -92.2372 152° Southeast 253 291 8,800 -1,440 Descending Houston Center
06:37PM 30.5708 -92.2008 153° Southeast 251 289 7,100 -1,632 Descending Houston Center
06:38PM 30.5114 -92.1650 153° Southeast 244 281 5,400 -1,887 Descending Houston Center
06:39PM 30.4386 -92.1278 156° South 239 275 3,200 -1,548 Descending Houston Center
06:40PM 30.3819 -92.1081 163° South 221 254 2,200 -677 Descending Houston Center
06:41PM 30.3286 -92.0869 161° South 211 243 1,800 -387 Descending Houston Center
06:43PM 30.2386 -92.0026 157° South  Level FlightAware Approximate
06:50PM 30.2000 -91.9833 157° South  Level FlightAware Approximate
06:51PM 30.2050 -91.9877 157° South  Level Estimated
06:52PM 30.2000 -91.9833 157° South  Level FlightAware Approximate
06:53PM 30.2050 -91.9877 157° South  Level Estimated
06:54PM 30.2000 -91.9833 157° South  Level FlightAware Approximate